Flag for U.S.A. Weather past 2 weeks in Springfield, Illinois, U.S.A.

Now
61 °F

Clear.


Feels Like: 61 °F
Forecast: 54 / 76 °F
Wind: 5 mph from South

Location: Capital Airport

Current Time: Oct 24, 2014 at 10:15:26 PM

Latest Report: Oct 24, 2014 at 9:52 PM


Visibility: 10 mi

Pressure: 29.98 "Hg

Humidity: 67%

Dew point: 50 °F

Location of SpringfieldLocation

Historic Weather in Springfield — Graph

°F

Springfield temperature yesterday

Maximum temperature yesterday: 62 °F (at 2:52 PM)
Minimum temperature yesterday: 38 °F (at 3:52 AM)
Average temperature yesterday: 52 °F

Past Weeks' High & Low Weather Summary

 TemperatureHumidityPressure
High71 °F (Oct 16, 3:52 PM)97% (Oct 13, 6:59 AM)30.36 "Hg (Oct 13, 6:59 AM)
Low35 °F (Oct 22, 6:52 AM)35% (Oct 20, 2:52 PM)29.42 "Hg (Oct 14, 5:52 AM)
Average55 °F76%29.97 "Hg
* Reported Oct 9 8:52 PM — Oct 24 8:52 PM, Springfield, Weather by CustomWeather, © 2014

Note: Actual official high and low records may vary slightly from our data, if they occured in-between our weather recording intervals... More about our weather records

Advertising

Springfield weather history for previous 24 hours

 ConditionsComfort  
Time TempWeatherWind HumidityBarometerVisibility
8:52 PM
Oct 24
62 °FClear.7 mph67%29.97 "Hg10 mi
7:52 PM61 °FClear.7 mph70%29.98 "Hg10 mi
6:52 PM60 °FSunny.7 mph69%29.98 "Hg10 mi
5:52 PM65 °FSunny.6 mph61%29.98 "Hg10 mi
4:52 PM69 °FSunny.7 mph51%29.99 "Hg10 mi
3:52 PM69 °FSunny.10 mph55%30.01 "Hg10 mi
2:52 PM68 °FSunny.No wind65%30.02 "Hg10 mi
1:52 PM64 °FSunny.3 mph75%30.05 "Hg10 mi
12:52 PM59 °FFog.5 mph87%30.09 "Hg3 mi
12:01 PM57 °FFog.7 mph93%30.10 "Hg2 mi
10:52 AM56 °FFog.5 mph97%30.11 "Hg1 mi
9:52 AM55 °FFog.3 mph96%30.11 "Hg0 mi
9:04 AM54 °FFog.5 mph97%30.11 "Hg0 mi
8:52 AM54 °FFog.No wind97%30.11 "Hg0 mi
7:52 AM54 °FFog.No wind97%30.09 "Hg0 mi
6:52 AM54 °FFog.No wind97%30.09 "Hg1 mi
5:59 AM53 °FFog.No wind93%30.08 "Hg2 mi
4:52 AM50 °FLow clouds.No wind86%30.08 "Hg10 mi
3:52 AM51 °FPassing clouds.No wind80%30.06 "Hg10 mi
2:52 AM49 °FClear.No wind84%30.06 "Hg10 mi
2:01 AM54 °FPassing clouds.3 mph72%30.07 "Hg10 mi
12:52 AM57 °FOvercast.5 mph67%30.07 "Hg10 mi
11:52 PM
Oct 23
57 °FOvercast.3 mph64%30.07 "Hg10 mi
10:52 PM58 °FOvercast.6 mph62%30.09 "Hg10 mi
Weather by CustomWeather, © 2014

See weather overviewHow to use our weather pages